Regional Weather Roundup
Issued by NWS

Home | Current Version | Previous Version | Graphics & Text | Print | Product List | Glossary On
Versions: 1 2 3 4 5 6 7 8 9 10 11 12 13 14 15 16 17 18 19 20 21 22 23 24 25 26 27
000
ASUS45 KCYS 160510
RWRWY

WYOMING REGIONAL WEATHER ROUNDUP
NATIONAL WEATHER SERVICE CHEYENNE WY
1000 PM MST SUN JAN 15 2017

NOTE:  "FAIR" INDICATES FEW OR NO CLOUDS BELOW 12,000 FEET
WITH NO SIGNIFICANT WEATHER AND/OR OBSTRUCTIONS TO VISIBILITY.

WYZ001-160600-
YELLOWSTONE NATIONAL PARK

CITY           SKY/WX    TMP DP  RH WIND       PRES   REMARKS
LK YELLOWSTONE   N/A    -11 -15  82 CALM      30.12R
W YELLOWSTONE  NOT AVBL

$$
WYZ002>013-054>058-071-098>099-160600-
NORTHERN WYOMING

CITY           SKY/WX    TMP DP  RH WIND       PRES   REMARKS
JACKSON        FAIR     -11 -15  84 CALM      30.15S
CODY           FAIR      17   7  64 SW7       30.07R WCI   8
GREYBULL       FAIR     -11 -16  78 SE7       30.14R WCI -26
WORLAND        FAIR      -3  -7  82 S9        30.12R WCI -19
SHERIDAN       FAIR      12   0  58 VRB6      30.06R WCI   3
BUFFALO        FAIR      26   1  34 NW3       30.04R
GILLETTE       FAIR      12   7  80 CALM      30.04R
HULETT         FAIR      18   3  53 S10       30.04S WCI   6
NEWCASTLE      FAIR      21  12  68 N12       30.04S WCI   9

$$
WYZ014>020-022>026-101>103-160600-
CENTRAL WYOMING

CITY           SKY/WX    TMP DP  RH WIND       PRES   REMARKS
BIG PINEY      FAIR     -17 -21  82 N3        30.06R
PINEDALE       FAIR     -15 -20  76 E7        30.06R WCI -31
DUBOIS         NOT AVBL
LANDER         FAIR       7   3  84 CALM      30.06R
RIVERTON       FAIR       2  -2  83 W6        30.08R WCI  -9
CASPER         FAIR      20  17  88 W10       30.04R WCI   9
DOUGLAS        CLOUDY    26  19  74 N8        30.03R WCI  18

$$
WYZ021-027>030-104>119-160600-
SOUTHERN WYOMING

CITY           SKY/WX    TMP DP  RH WIND       PRES   REMARKS
EVANSTON       FAIR       2  -3  80 SE5       30.08R WCI  -8
ROCK SPRINGS   FAIR       4   0  83 W7        30.07R WCI  -8
RAWLINS        FOG       15  11  83 CALM      30.03R VSB 1/4
LARAMIE        CLOUDY    19  16  88 N9        29.96R WCI   8
CHEYENNE       CLOUDY    32  21  64 N8        29.96S WCI  25
TORRINGTON     CLOUDY    32  25  75 CALM      30.00R

$$




USA.gov is the U.S. government's official web portal to all federal, state and local government web resources and services.